Regional Weather Roundup
Issued by NWS

Home | Current Version | Previous Version | Text Only | Print | Product List | Glossary On
Versions: 1 2 3 4 5 6 7 8 9 10 11 12 13 14 15 16 17 18 19 20 21 22 23 24 25 26 27 28 29 30 31 32 33 34 35 36 37 38 39 40 41 42 43 44 45 46 47 48 49 50
000
ASUS43 KBIS 030402
RWRND

NORTH DAKOTA REGIONAL WEATHER ROUNDUP
NATIONAL WEATHER SERVICE BISMARCK ND
1100 PM CDT TUE JUN 02 2015

NOTE: "FAIR" INDICATES FEW OR NO CLOUDS BELOW 12,000 FEET WITH NO
SIGNIFICANT WEATHER AND/OR OBSTRUCTIONS TO VISIBILITY.


NDZ001>003-009>011-017-030500-
NORTHWEST NORTH DAKOTA

CITY           SKY/WX    TMP DP  RH WIND       PRES   REMARKS
WILLISTON      CLOUDY    56  53  90 N10       29.92R
MINOT          LGT RAIN  53  51  93 N28G35    29.82S
MINOT AFB      DRIZZLE   52  52 100 N22G32    29.83R
$$

NDZ018>021-031>035-040>046-030500-
SOUTHWEST NORTH DAKOTA

CITY           SKY/WX    TMP DP  RH WIND       PRES   REMARKS
BISMARCK       CLOUDY    68  65  90 W13G23    29.77R
DICKINSON      CLOUDY    56  53  90 W15       29.84R
GARRISON         N/A     58  55  90 N12G25    29.78R
HETTINGER ARPT MOCLDY    55  50  83 W13       29.90R
$$

NDZ004>008-012>016-024-026-027-054-030500-
NORTHEAST NORTH DAKOTA

CITY           SKY/WX    TMP DP  RH WIND       PRES   REMARKS
GRAND FORKS    MOCLDY    63  60  90 NE14      29.74F
GRND FRKS AFB  CLOUDY    61  60  96 NE10      29.74F
DEVILS LAKE    CLOUDY    61  55  82 NE15G23   29.76S
$$

NDZ022-023-025-028>030-036>039-047>053-030500-
SOUTHEAST NORTH DAKOTA

CITY           SKY/WX    TMP DP  RH WIND       PRES   REMARKS
FARGO          CLOUDY    76  62  62 S22G29    29.65F
JAMESTOWN      CLEAR     64  62  93 NE13      29.69S
$$




USA.gov is the U.S. government's official web portal to all federal, state and local government web resources and services.